Regional Weather Roundup
Issued by NWS

Home | Current Version | Previous Version | Text Only | Print | Product List | Glossary Off
Versions: 1 2 3 4 5 6 7 8 9 10 11 12 13 14 15 16 17 18 19 20 21 22 23 24 25 26 27 28 29 30 31 32 33 34 35 36 37 38 39 40 41 42 43 44 45 46 47 48 49 50

098
ASUS43 KFSD 070910
RWRSD

WEATHER ROUNDUP FOR SOUTH DAKOTA
NATIONAL WEATHER SERVICE SIOUX FALLS SD
300 AM CST SUN FEB 07 2016

NOTE: "FAIR" INDICATES FEW OR NO CLOUDS BELOW 12,000 FEET WITH NO
SIGNIFICANT WEATHER AND/OR OBSTRUCTIONS TO VISIBILITY.


SDZ001>005-009-010-012>017-071000-
NORTHWEST AND NORTH CENTRAL SOUTH DAKOTA

CITY           SKY/WX    TMP DP  RH WIND       PRES   REMARKS
BUFFALO          N/A     35  22  58 NW31G40   29.93R WCI  22
FAITH            N/A     34  24  67 W30G39    29.95R WCI  20
MOBRIDGE       CLEAR     38  25  59 NW22G33   29.83R
$$

SDZ012>016-024>037-041>051-057-063-072>074-071000-
SOUTHWEST AND SOUTH CENTRAL SOUTH DAKOTA

CITY           SKY/WX    TMP DP  RH WIND       PRES   REMARKS
RAPID CTY ARPT CLOUDY    37  16  42 NW26      30.04R
PIERRE         CLOUDY    36  25  64 W18       29.94R
CUSTER         CLOUDY    26  14  60 NW15G28   30.03R WCI  14
ELLSWORTH AFB  CLEAR     37  17  43 NW29G38   30.02
PHILIP         CLEAR     36  24  62 NW18G26   30.01R
PINE RIDGE     CLOUDY    34  21  59 W9        30.08S WCI  27
SPEARFISH      FAIR      32  23  69 W23G32    30.07R WCI  19
WINNER         FAIR      37  24  59 W14       29.98R
$$

SDZ004>011-016>023-039-040-071000-
NORTHEAST SOUTH DAKOTA

CITY           SKY/WX    TMP DP  RH WIND       PRES   REMARKS
ABERDEEN       CLOUDY    39  24  55 W23G30    29.76R
WATERTOWN      CLEAR     36  25  64 W22G29    29.72S
BROOKINGS      CLEAR     35  27  72 W22G30    29.76R WCI  23
SISSETON         N/A     38  27  64 NW30G38   29.65R
$$

SDZ017-020-022-023-036>040-048>070-071000-
SOUTHEAST SOUTH DAKOTA

CITY           SKY/WX    TMP DP  RH WIND       PRES   REMARKS
SIOUX FALLS    CLEAR     36  27  69 W18G25    29.83R
HURON          CLEAR     35  27  72 W17       29.86R WCI  25
CHAMBERLAIN    PTCLDY    36  26  69 W16       29.95R
MITCHELL       CLEAR     37  28  70 W18G25    29.90R
YANKTON        CLEAR     39  27  60 W25       29.90R
$$

ABBREVIATIONS USED IN REMARKS
   TC - TEMPERATURE IN CELSIUS
  WCI - WIND CHILL INDEX
   HX - HEAT INDEX
  VSB - VISIBILITY





USA.gov is the U.S. government's official web portal to all federal, state and local government web resources and services.